owner,sensor,date,latitude,longitude,vertical_datum,direction_of_sea_water_velocity,sea_water_speed,upward_sea_water_velocity,qcFlag 
TABS,ioos:station:wmo:42043:1,2007-03-01T00:00:00Z,28.9818,-94.9186,2.0,249.8247574,39.05632471,-99999.0,'11111222,11111222,99999999' 
TABS,ioos:station:wmo:42043:1,2007-03-01T00:30:00Z,28.9818,-94.9186,2.0,250.2976777,36.039803,-99999.0,'11111222,11111222,99999999' 
TABS,ioos:station:wmo:42043:1,2007-03-01T01:00:00Z,28.9818,-94.9186,2.0,253.0913377,30.97918172,-99999.0,'11111222,11111222,99999999' 
TABS,ioos:station:wmo:42043:1,2007-03-01T01:30:00Z,28.9818,-94.9186,2.0,254.0057925,29.25231615,-99999.0,'11111222,11111222,99999999' 
TABS,ioos:station:wmo:42043:1,2007-03-01T02:00:00Z,28.9818,-94.9186,2.0,254.1605597,29.60399973,-99999.0,'11111222,11111222,99999999' 
TABS,ioos:station:wmo:42043:1,2007-03-01T02:30:00Z,28.9818,-94.9186,2.0,248.9176158,25.88239943,-99999.0,'11111222,11111222,99999999' 
TABS,ioos:station:wmo:42043:1,2007-03-01T03:00:00Z,28.9818,-94.9186,2.0,248.1859805,26.07719694,-99999.0,'11111222,11111222,99999999' 
TABS,ioos:station:wmo:42043:1,2007-03-01T03:30:00Z,28.9818,-94.9186,2.0,246.7141839,21.65376873,-99999.0,'11111222,11111222,99999999' 
TABS,ioos:station:wmo:42043:1,2007-03-01T04:00:00Z,28.9818,-94.9186,2.0,246.439655,22.69151604,-99999.0,'11111222,11111222,99999999' 
TABS,ioos:station:wmo:42043:1,2007-03-01T04:30:00Z,28.9818,-94.9186,2.0,251.7945443,18.91689721,-99999.0,'11111222,11111222,99999999' 
TABS,ioos:station:wmo:42043:1,2007-03-01T05:00:00Z,28.9818,-94.9186,2.0,246.8080139,21.58415159,-99999.0,'11111222,11111222,99999999' 
TABS,ioos:station:wmo:42043:1,2007-03-01T05:30:00Z,28.9818,-94.9186,2.0,240.3865822,21.02642385,-99999.0,'11111222,11111222,99999999' 
TABS,ioos:station:wmo:42043:1,2007-03-01T06:00:00Z,28.9818,-94.9186,2.0,238.3293452,22.11299392,-99999.0,'11111222,11111222,99999999' 
TABS,ioos:station:wmo:42043:1,2007-03-01T06:30:00Z,28.9818,-94.9186,2.0,241.2853321,22.89555415,-99999.0,'11111222,11111222,99999999' 
TABS,ioos:station:wmo:42043:1,2007-03-01T07:00:00Z,28.9818,-94.9186,2.0,238.2477024,21.56798785,-99999.0,'11111222,11111222,99999999' 
TABS,ioos:station:wmo:42043:1,2007-03-01T07:30:00Z,28.9818,-94.9186,2.0,239.4972427,23.64184637,-99999.0,'11111222,11111222,99999999' 
TABS,ioos:station:wmo:42043:1,2007-03-01T08:00:00Z,28.9818,-94.9186,2.0,232.3804581,26.91630175,-99999.0,'11111222,11111222,99999999' 
TABS,ioos:station:wmo:42043:1,2007-03-01T08:30:00Z,28.9818,-94.9186,2.0,229.1438234,24.65764385,-99999.0,'11111222,11111222,99999999' 
TABS,ioos:station:wmo:42043:1,2007-03-01T09:00:00Z,28.9818,-94.9186,2.0,224.0045747,28.50070175,-99999.0,'11111222,11111222,99999999' 
TABS,ioos:station:wmo:42043:1,2007-03-01T09:30:00Z,28.9818,-94.9186,2.0,227.2248807,31.68813658,-99999.0,'11111222,11111222,99999999' 
TABS,ioos:station:wmo:42043:1,2007-03-01T10:00:00Z,28.9818,-94.9186,2.0,221.30522,33.79923372,-99999.0,'11111222,11111222,99999999' 
TABS,ioos:station:wmo:42043:1,2007-03-01T10:30:00Z,28.9818,-94.9186,2.0,223.740642,34.75561825,-99999.0,'11111222,11111222,99999999' 
TABS,ioos:station:wmo:42043:1,2007-03-01T11:00:00Z,28.9818,-94.9186,2.0,221.0163491,37.25553113,-99999.0,'11111222,11111222,99999999' 
TABS,ioos:station:wmo:42043:1,2007-03-01T11:30:00Z,28.9818,-94.9186,2.0,220.8330619,42.04255225,-99999.0,'11111222,11111222,99999999' 
TABS,ioos:station:wmo:42043:1,2007-03-01T12:00:00Z,28.9818,-94.9186,2.0,215.4868518,40.85989843,-99999.0,'11111222,11111222,99999999' 
TABS,ioos:station:wmo:42043:1,2007-03-01T12:30:00Z,28.9818,-94.9186,2.0,216.3157576,41.58794296,-99999.0,'11111222,11111222,99999999' 
TABS,ioos:station:wmo:42043:1,2007-03-01T13:00:00Z,28.9818,-94.9186,2.0,216.7532389,40.37608327,-99999.0,'11111222,11111222,99999999' 
TABS,ioos:station:wmo:42043:1,2007-03-01T13:30:00Z,28.9818,-94.9186,2.0,215.8721748,37.79972751,-99999.0,'11111222,11111222,99999999' 
TABS,ioos:station:wmo:42043:1,2007-03-01T14:00:00Z,28.9818,-94.9186,2.0,220.766623,36.01928372,-99999.0,'11111222,11111222,99999999' 
TABS,ioos:station:wmo:42043:1,2007-03-01T14:30:00Z,28.9818,-94.9186,2.0,218.0983011,33.48369902,-99999.0,'11111222,11111222,99999999' 
TABS,ioos:station:wmo:42043:1,2007-03-01T15:00:00Z,28.9818,-94.9186,2.0,220.9528735,34.96876463,-99999.0,'11111222,11111222,99999999' 
TABS,ioos:station:wmo:42043:1,2007-03-01T15:30:00Z,28.9818,-94.9186,2.0,221.5760058,37.41615961,-99999.0,'11111222,11111222,99999999' 
TABS,ioos:station:wmo:42043:1,2007-03-01T16:00:00Z,28.9818,-94.9186,2.0,222.3577794,39.27202567,-99999.0,'11111222,11111222,99999999' 
TABS,ioos:station:wmo:42043:1,2007-03-01T17:00:00Z,28.9818,-94.9186,2.0,214.9312218,38.78819537,-99999.0,'11111222,11111222,99999999' 
TABS,ioos:station:wmo:42043:1,2007-03-01T17:30:00Z,28.9818,-94.9186,2.0,185.2713821,38.31204641,-99999.0,'11111222,11111222,99999999' 
TABS,ioos:station:wmo:42043:1,2007-03-01T18:00:00Z,28.9818,-94.9186,2.0,209.9692066,43.98057412,-99999.0,'11111222,11111222,99999999' 
TABS,ioos:station:wmo:42043:1,2007-03-01T18:30:00Z,28.9818,-94.9186,2.0,213.6056129,45.31350792,-99999.0,'11111222,11111222,99999999' 
TABS,ioos:station:wmo:42043:1,2007-03-01T19:00:00Z,28.9818,-94.9186,2.0,214.2296358,50.62973435,-99999.0,'11111222,11111222,99999999' 
TABS,ioos:station:wmo:42043:1,2007-03-01T19:30:00Z,28.9818,-94.9186,2.0,214.2802075,50.59966502,-99999.0,'11111222,11111222,99999999' 
TABS,ioos:station:wmo:42043:1,2007-03-01T20:00:00Z,28.9818,-94.9186,2.0,212.6048758,53.46604249,-99999.0,'11111222,11111222,99999999' 
TABS,ioos:station:wmo:42043:1,2007-03-01T20:30:00Z,28.9818,-94.9186,2.0,216.6289986,53.81847452,-99999.0,'11111222,11111222,99999999' 
TABS,ioos:station:wmo:42043:1,2007-03-01T21:00:00Z,28.9818,-94.9186,2.0,216.17749,52.65184137,-99999.0,'11111222,11111222,99999999' 
TABS,ioos:station:wmo:42043:1,2007-03-01T21:30:00Z,28.9818,-94.9186,2.0,214.2387438,54.4213607,-99999.0,'11111222,11111222,99999999' 
TABS,ioos:station:wmo:42043:1,2007-03-01T22:00:00Z,28.9818,-94.9186,2.0,216.4854405,52.20117336,-99999.0,'11111222,11111222,99999999' 
TABS,ioos:station:wmo:42043:1,2007-03-01T22:30:00Z,28.9818,-94.9186,2.0,214.2583308,52.54656316,-99999.0,'11111222,11111222,99999999' 
TABS,ioos:station:wmo:42043:1,2007-03-01T23:00:00Z,28.9818,-94.9186,2.0,212.8217726,55.10746773,-99999.0,'11111222,11111222,99999999' 
TABS,ioos:station:wmo:42043:1,2007-03-01T23:30:00Z,28.9818,-94.9186,2.0,217.2184734,54.52501077,-99999.0,'11111222,11111222,99999999' 
TABS,ioos:station:wmo:42043:1,2007-03-02T00:00:00Z,28.9818,-94.9186,2.0,222.6262495,53.95610809,-99999.0,'11111222,11111222,99999999' 
TABS,ioos:station:wmo:42043:1,2007-03-02T00:30:00Z,28.9818,-94.9186,2.0,220.9243037,53.6282323,-99999.0,'11111222,11111222,99999999' 
TABS,ioos:station:wmo:42043:1,2007-03-02T01:00:00Z,28.9818,-94.9186,2.0,222.0624105,58.09443433,-99999.0,'11111222,11111222,99999999' 
TABS,ioos:station:wmo:42043:1,2007-03-02T01:30:00Z,28.9818,-94.9186,2.0,228.1497099,54.30299623,-99999.0,'11111222,11111222,99999999' 
TABS,ioos:station:wmo:42043:1,2007-03-02T02:00:00Z,28.9818,-94.9186,2.0,230.7733299,54.33394611,-99999.0,'11111222,11111222,99999999' 
TABS,ioos:station:wmo:42043:1,2007-03-02T02:30:00Z,28.9818,-94.9186,2.0,231.3933132,55.24336883,-99999.0,'11111222,11111222,99999999' 
TABS,ioos:station:wmo:42043:1,2007-03-02T03:30:00Z,28.9818,-94.9186,2.0,233.3629636,50.12241515,-99999.0,'11111222,11111222,99999999' 
TABS,ioos:station:wmo:42043:1,2007-03-02T04:00:00Z,28.9818,-94.9186,2.0,235.4719261,47.61778029,-99999.0,'11111222,11111222,99999999' 
TABS,ioos:station:wmo:42043:1,2007-03-02T04:30:00Z,28.9818,-94.9186,2.0,242.0145624,45.11534661,-99999.0,'11111222,11111222,99999999' 
TABS,ioos:station:wmo:42043:1,2007-03-02T05:00:00Z,28.9818,-94.9186,2.0,245.6229947,47.19756879,-99999.0,'11111222,11111222,99999999' 
TABS,ioos:station:wmo:42043:1,2007-03-02T05:30:00Z,28.9818,-94.9186,2.0,244.7756254,47.96337874,-99999.0,'11111222,11111222,99999999' 
TABS,ioos:station:wmo:42043:1,2007-03-02T06:00:00Z,28.9818,-94.9186,2.0,247.1824244,50.69722379,-99999.0,'11111222,11111222,99999999' 
TABS,ioos:station:wmo:42043:1,2007-03-02T06:30:00Z,28.9818,-94.9186,2.0,249.6265042,50.95763436,-99999.0,'11111222,11111222,99999999' 
TABS,ioos:station:wmo:42043:1,2007-03-02T07:00:00Z,28.9818,-94.9186,2.0,249.1430238,47.52404128,-99999.0,'11111222,11111222,99999999' 
TABS,ioos:station:wmo:42043:1,2007-03-02T07:30:00Z,28.9818,-94.9186,2.0,254.6363164,46.91654825,-99999.0,'11111222,11111222,99999999' 
TABS,ioos:station:wmo:42043:1,2007-03-02T08:00:00Z,28.9818,-94.9186,2.0,256.1284681,47.13456905,-99999.0,'11111222,11111222,99999999' 
TABS,ioos:station:wmo:42043:1,2007-03-02T08:30:00Z,28.9818,-94.9186,2.0,257.1405538,44.03436045,-99999.0,'11111222,11111222,99999999' 
TABS,ioos:station:wmo:42043:1,2007-03-02T09:00:00Z,28.9818,-94.9186,2.0,261.2626132,42.72578847,-99999.0,'11111222,11111222,99999999' 
TABS,ioos:station:wmo:42043:1,2007-03-02T09:30:00Z,28.9818,-94.9186,2.0,260.0828788,40.00775175,-99999.0,'11111222,11111222,99999999' 
TABS,ioos:station:wmo:42043:1,2007-03-02T10:00:00Z,28.9818,-94.9186,2.0,261.2110934,40.12105931,-99999.0,'11111222,11111222,99999999' 
TABS,ioos:station:wmo:42043:1,2007-03-02T10:30:00Z,28.9818,-94.9186,2.0,260.4377918,41.65876618,-99999.0,'11111222,11111222,99999999' 
TABS,ioos:station:wmo:42043:1,2007-03-02T11:00:00Z,28.9818,-94.9186,2.0,252.6337898,34.74366849,-99999.0,'11111222,11111222,99999999' 
TABS,ioos:station:wmo:42043:1,2007-03-02T11:30:00Z,28.9818,-94.9186,2.0,255.0104565,30.042192,-99999.0,'11111222,11111222,99999999' 
TABS,ioos:station:wmo:42043:1,2007-03-02T12:00:00Z,28.9818,-94.9186,2.0,251.03627,26.402979,-99999.0,'11111222,11111222,99999999' 
TABS,ioos:station:wmo:42043:1,2007-03-02T13:00:00Z,28.9818,-94.9186,2.0,242.3394541,25.50477798,-99999.0,'11111222,11111222,99999999' 
TABS,ioos:station:wmo:42043:1,2007-03-02T13:30:00Z,28.9818,-94.9186,2.0,243.9328005,28.28732932,-99999.0,'11111222,11111222,99999999' 
TABS,ioos:station:wmo:42043:1,2007-03-02T14:00:00Z,28.9818,-94.9186,2.0,240.7284582,22.35430384,-99999.0,'11111222,11111222,99999999' 
TABS,ioos:station:wmo:42043:1,2007-03-02T14:30:00Z,28.9818,-94.9186,2.0,230.8714862,17.00320558,-99999.0,'11111222,11111222,99999999' 
TABS,ioos:station:wmo:42043:1,2007-03-02T15:00:00Z,28.9818,-94.9186,2.0,229.0096813,18.70634384,-99999.0,'11111222,11111222,99999999' 
TABS,ioos:station:wmo:42043:1,2007-03-02T15:30:00Z,28.9818,-94.9186,2.0,228.0402445,18.39653228,-99999.0,'11111222,11111222,99999999' 
TABS,ioos:station:wmo:42043:1,2007-03-02T16:00:00Z,28.9818,-94.9186,2.0,228.2694306,15.74461495,-99999.0,'11111222,11111222,99999999' 
TABS,ioos:station:wmo:42043:1,2007-03-02T16:30:00Z,28.9818,-94.9186,2.0,214.45632,17.62162876,-99999.0,'11111222,11111222,99999999' 
TABS,ioos:station:wmo:42043:1,2007-03-02T17:00:00Z,28.9818,-94.9186,2.0,209.493386,19.51953381,-99999.0,'11111222,11111222,99999999' 
TABS,ioos:station:wmo:42043:1,2007-03-02T17:30:00Z,28.9818,-94.9186,2.0,207.9575273,21.15945415,-99999.0,'11111222,11111222,99999999' 
TABS,ioos:station:wmo:42043:1,2007-03-02T18:00:00Z,28.9818,-94.9186,2.0,195.3890172,19.1050072,-99999.0,'11111222,11111222,99999999' 
TABS,ioos:station:wmo:42043:1,2007-03-02T18:30:00Z,28.9818,-94.9186,2.0,192.3667605,23.81255131,-99999.0,'11111222,11111222,99999999' 
TABS,ioos:station:wmo:42043:1,2007-03-02T19:00:00Z,28.9818,-94.9186,2.0,193.2730282,26.04578469,-99999.0,'11111222,11111222,99999999' 
TABS,ioos:station:wmo:42043:1,2007-03-02T19:30:00Z,28.9818,-94.9186,2.0,195.8052846,27.57246815,-99999.0,'11111222,11111222,99999999' 
TABS,ioos:station:wmo:42043:1,2007-03-02T20:00:00Z,28.9818,-94.9186,2.0,196.3924971,30.26008096,-99999.0,'11111222,11111222,99999999' 
TABS,ioos:station:wmo:42043:1,2007-03-02T20:30:00Z,28.9818,-94.9186,2.0,198.3733947,35.46812654,-99999.0,'11111222,11111222,99999999' 
TABS,ioos:station:wmo:42043:1,2007-03-02T21:00:00Z,28.9818,-94.9186,2.0,194.2706248,35.53661773,-99999.0,'11111222,11111222,99999999' 
TABS,ioos:station:wmo:42043:1,2007-03-02T21:30:00Z,28.9818,-94.9186,2.0,195.8846745,37.74120957,-99999.0,'11111222,11111222,99999999' 
TABS,ioos:station:wmo:42043:1,2007-03-02T22:00:00Z,28.9818,-94.9186,2.0,198.9181185,41.97756782,-99999.0,'11111222,11111222,99999999' 
TABS,ioos:station:wmo:42043:1,2007-03-02T22:30:00Z,28.9818,-94.9186,2.0,198.8812161,40.17163303,-99999.0,'11111222,11111222,99999999' 
TABS,ioos:station:wmo:42043:1,2007-03-02T23:00:00Z,28.9818,-94.9186,2.0,201.2859634,38.20650337,-99999.0,'11111222,11111222,99999999' 
TABS,ioos:station:wmo:42043:1,2007-03-02T23:30:00Z,28.9818,-94.9186,2.0,206.1580077,38.4255605,-99999.0,'11111222,11111222,99999999' 
TABS,ioos:station:wmo:42043:1,2007-03-03T00:00:00Z,28.9818,-94.9186,2.0,206.8206782,39.05108065,-99999.0,'11111222,11111222,99999999' 
TABS,ioos:station:wmo:42043:1,2007-03-03T00:30:00Z,28.9818,-94.9186,2.0,215.2879634,38.18654868,-99999.0,'11111222,11111222,99999999' 
TABS,ioos:station:wmo:42043:1,2007-03-03T01:00:00Z,28.9818,-94.9186,2.0,217.0063587,38.5441098,-99999.0,'11111222,11111222,99999999' 
TABS,ioos:station:wmo:42043:1,2007-03-03T01:30:00Z,28.9818,-94.9186,2.0,221.2501117,40.1151854,-99999.0,'11111222,11111222,99999999' 
TABS,ioos:station:wmo:42043:1,2007-03-03T02:00:00Z,28.9818,-94.9186,2.0,221.2160631,40.71910854,-99999.0,'11111222,11111222,99999999' 
TABS,ioos:station:wmo:42043:1,2007-03-03T02:30:00Z,28.9818,-94.9186,2.0,222.17281,41.00552402,-99999.0,'11111222,11111222,99999999' 
TABS,ioos:station:wmo:42043:1,2007-03-03T03:00:00Z,28.9818,-94.9186,2.0,218.5313653,39.10444604,-99999.0,'11111222,11111222,99999999' 
TABS,ioos:station:wmo:42043:1,2007-03-03T03:30:00Z,28.9818,-94.9186,2.0,220.5362252,39.34253296,-99999.0,'11111222,11111222,99999999' 
TABS,ioos:station:wmo:42043:1,2007-03-03T04:00:00Z,28.9818,-94.9186,2.0,221.6948235,44.03406068,-99999.0,'11111222,11111222,99999999' 
TABS,ioos:station:wmo:42043:1,2007-03-03T04:30:00Z,28.9818,-94.9186,2.0,223.8294016,43.27689106,-99999.0,'11111222,11111222,99999999' 
TABS,ioos:station:wmo:42043:1,2007-03-03T07:30:00Z,28.9818,-94.9186,2.0,228.2689604,47.98457773,-99999.0,'11111222,11111222,99999999' 
TABS,ioos:station:wmo:42043:1,2007-03-03T08:00:00Z,28.9818,-94.9186,2.0,230.5812691,48.12760123,-99999.0,'11111222,11111222,99999999' 
TABS,ioos:station:wmo:42043:1,2007-03-03T08:30:00Z,28.9818,-94.9186,2.0,229.9578192,48.43420279,-99999.0,'11111222,11111222,99999999' 
TABS,ioos:station:wmo:42043:1,2007-03-03T09:00:00Z,28.9818,-94.9186,2.0,229.8949169,53.94395332,-99999.0,'11111222,11111222,99999999' 
TABS,ioos:station:wmo:42043:1,2007-03-03T09:30:00Z,28.9818,-94.9186,2.0,229.7732693,60.83836454,-99999.0,'11111222,11111222,99999999' 
TABS,ioos:station:wmo:42043:1,2007-03-03T10:00:00Z,28.9818,-94.9186,2.0,228.291036,65.89083168,-99999.0,'11111222,11111222,99999999' 
TABS,ioos:station:wmo:42043:1,2007-03-03T10:30:00Z,28.9818,-94.9186,2.0,233.8530083,70.98365516,-99999.0,'11111222,11111222,99999999' 
TABS,ioos:station:wmo:42043:1,2007-03-03T11:00:00Z,28.9818,-94.9186,2.0,233.2924234,70.45028389,-99999.0,'11111222,11111222,99999999' 
TABS,ioos:station:wmo:42043:1,2007-03-03T11:30:00Z,28.9818,-94.9186,2.0,234.7645347,70.66676234,-99999.0,'11111222,11111222,99999999' 
TABS,ioos:station:wmo:42043:1,2007-03-03T12:00:00Z,28.9818,-94.9186,2.0,233.6887471,73.39149269,-99999.0,'11111222,11111222,99999999' 
TABS,ioos:station:wmo:42043:1,2007-03-03T12:30:00Z,28.9818,-94.9186,2.0,235.6874823,74.84456226,-99999.0,'11111222,11111222,99999999' 
TABS,ioos:station:wmo:42043:1,2007-03-03T13:00:00Z,28.9818,-94.9186,2.0,237.8820171,73.58095406,-99999.0,'11111222,11111222,99999999' 
TABS,ioos:station:wmo:42043:1,2007-03-03T13:30:00Z,28.9818,-94.9186,2.0,239.4715788,69.69046491,-99999.0,'11111222,11111222,99999999' 
TABS,ioos:station:wmo:42043:1,2007-03-03T14:00:00Z,28.9818,-94.9186,2.0,240.5040378,69.2790163,-99999.0,'11111222,11111222,99999999' 
TABS,ioos:station:wmo:42043:1,2007-03-03T14:30:00Z,28.9818,-94.9186,2.0,241.9366581,67.40470681,-99999.0,'11111222,11111222,99999999' 
TABS,ioos:station:wmo:42043:1,2007-03-03T15:00:00Z,28.9818,-94.9186,2.0,241.6309117,64.50674461,-99999.0,'11111222,11111222,99999999' 
TABS,ioos:station:wmo:42043:1,2007-03-03T15:30:00Z,28.9818,-94.9186,2.0,241.5668707,62.02122621,-99999.0,'11111222,11111222,99999999' 
TABS,ioos:station:wmo:42043:1,2007-03-03T16:00:00Z,28.9818,-94.9186,2.0,243.2787872,64.13961101,-99999.0,'11111222,11111222,99999999' 
TABS,ioos:station:wmo:42043:1,2007-03-03T16:30:00Z,28.9818,-94.9186,2.0,242.1428156,69.23284336,-99999.0,'11111222,11111222,99999999' 
TABS,ioos:station:wmo:42043:1,2007-03-03T17:00:00Z,28.9818,-94.9186,2.0,243.4084974,68.74120889,-99999.0,'11111222,11111222,99999999' 
TABS,ioos:station:wmo:42043:1,2007-03-03T17:30:00Z,28.9818,-94.9186,2.0,244.3907568,67.53418468,-99999.0,'11111222,11111222,99999999' 
TABS,ioos:station:wmo:42043:1,2007-03-03T18:00:00Z,28.9818,-94.9186,2.0,242.1662451,68.08706338,-99999.0,'11111222,11111222,99999999' 
TABS,ioos:station:wmo:42043:1,2007-03-03T18:30:00Z,28.9818,-94.9186,2.0,242.2077579,66.42197302,-99999.0,'11111222,11111222,99999999' 
TABS,ioos:station:wmo:42043:1,2007-03-03T19:00:00Z,28.9818,-94.9186,2.0,240.351271,67.01358146,-99999.0,'11111222,11111222,99999999' 
TABS,ioos:station:wmo:42043:1,2007-03-03T19:30:00Z,28.9818,-94.9186,2.0,238.9426414,67.43676297,-99999.0,'11111222,11111222,99999999' 
TABS,ioos:station:wmo:42043:1,2007-03-03T20:00:00Z,28.9818,-94.9186,2.0,237.0615859,65.51018852,-99999.0,'11111222,11111222,99999999' 
TABS,ioos:station:wmo:42043:1,2007-03-03T20:30:00Z,28.9818,-94.9186,2.0,233.9165678,63.50198737,-99999.0,'11111222,11111222,99999999' 
TABS,ioos:station:wmo:42043:1,2007-03-03T21:00:00Z,28.9818,-94.9186,2.0,230.4145342,59.57087963,-99999.0,'11111222,11111222,99999999' 
TABS,ioos:station:wmo:42043:1,2007-03-03T21:30:00Z,28.9818,-94.9186,2.0,232.4105003,59.42668256,-99999.0,'11111222,11111222,99999999' 
TABS,ioos:station:wmo:42043:1,2007-03-03T22:00:00Z,28.9818,-94.9186,2.0,228.8119006,58.28142071,-99999.0,'11111222,11111222,99999999' 
TABS,ioos:station:wmo:42043:1,2007-03-03T22:30:00Z,28.9818,-94.9186,2.0,228.3071385,65.32527,-99999.0,'11111222,11111222,99999999' 
TABS,ioos:station:wmo:42043:1,2007-03-03T23:00:00Z,28.9818,-94.9186,2.0,229.9336681,68.73090717,-99999.0,'11111222,11111222,99999999' 
TABS,ioos:station:wmo:42043:1,2007-03-03T23:30:00Z,28.9818,-94.9186,2.0,229.6366049,74.3481338,-99999.0,'11111222,11111222,99999999' 
TABS,ioos:station:wmo:42043:1,2007-03-04T00:00:00Z,28.9818,-94.9186,2.0,231.1202438,79.45086154,-99999.0,'11111222,11111222,99999999' 
TABS,ioos:station:wmo:42043:1,2007-03-04T00:30:00Z,28.9818,-94.9186,2.0,230.7266319,81.27748089,-99999.0,'11111222,11111222,99999999' 
TABS,ioos:station:wmo:42043:1,2007-03-04T01:00:00Z,28.9818,-94.9186,2.0,230.3539955,83.96051096,-99999.0,'11111222,11111222,99999999' 
TABS,ioos:station:wmo:42043:1,2007-03-04T01:30:00Z,28.9818,-94.9186,2.0,228.3992512,86.21367931,-99999.0,'11111222,11111222,99999999' 
TABS,ioos:station:wmo:42043:1,2007-03-04T02:00:00Z,28.9818,-94.9186,2.0,226.876378,84.42433595,-99999.0,'11111222,11111222,99999999' 
TABS,ioos:station:wmo:42043:1,2007-03-04T02:30:00Z,28.9818,-94.9186,2.0,225.2787117,85.6670024,-99999.0,'11111222,11111222,99999999' 
TABS,ioos:station:wmo:42043:1,2007-03-04T03:00:00Z,28.9818,-94.9186,2.0,223.471131,83.76539262,-99999.0,'11111222,11111222,99999999' 
TABS,ioos:station:wmo:42043:1,2007-03-04T03:30:00Z,28.9818,-94.9186,2.0,224.4632053,81.56127145,-99999.0,'11111222,11111222,99999999' 
TABS,ioos:station:wmo:42043:1,2007-03-04T04:00:00Z,28.9818,-94.9186,2.0,224.3831912,80.176408,-99999.0,'11111222,11111222,99999999' 
TABS,ioos:station:wmo:42043:1,2007-03-04T04:30:00Z,28.9818,-94.9186,2.0,223.1067084,74.27967757,-99999.0,'11111222,11111222,99999999' 
TABS,ioos:station:wmo:42043:1,2007-03-04T05:00:00Z,28.9818,-94.9186,2.0,218.9897927,70.7104073,-99999.0,'11111222,11111222,99999999' 
TABS,ioos:station:wmo:42043:1,2007-03-04T05:30:00Z,28.9818,-94.9186,2.0,222.7985329,64.8046557,-99999.0,'11111222,11111222,99999999' 
TABS,ioos:station:wmo:42043:1,2007-03-04T06:00:00Z,28.9818,-94.9186,2.0,222.5064583,66.96983948,-99999.0,'11111222,11111222,99999999' 
TABS,ioos:station:wmo:42043:1,2007-03-04T06:30:00Z,28.9818,-94.9186,2.0,226.721706,57.41471588,-99999.0,'11111222,11111222,99999999' 
TABS,ioos:station:wmo:42043:1,2007-03-04T07:00:00Z,28.9818,-94.9186,2.0,228.3023324,49.21859506,-99999.0,'11111222,11111222,99999999' 
TABS,ioos:station:wmo:42043:1,2007-03-04T07:30:00Z,28.9818,-94.9186,2.0,228.1413775,51.86645351,-99999.0,'11111222,11111222,99999999' 
TABS,ioos:station:wmo:42043:1,2007-03-04T08:00:00Z,28.9818,-94.9186,2.0,229.6283254,44.86374929,-99999.0,'11111222,11111222,99999999' 
TABS,ioos:station:wmo:42043:1,2007-03-04T08:30:00Z,28.9818,-94.9186,2.0,227.7604188,53.73176714,-99999.0,'11111222,11111222,99999999' 
TABS,ioos:station:wmo:42043:1,2007-03-04T09:00:00Z,28.9818,-94.9186,2.0,231.3175963,44.20811012,-99999.0,'11111222,11111222,99999999' 
TABS,ioos:station:wmo:42043:1,2007-03-04T09:30:00Z,28.9818,-94.9186,2.0,231.0062951,44.53057938,-99999.0,'11111222,11111222,99999999' 
TABS,ioos:station:wmo:42043:1,2007-03-04T10:00:00Z,28.9818,-94.9186,2.0,231.2370658,41.7827955,-99999.0,'11111222,11111222,99999999' 
TABS,ioos:station:wmo:42043:1,2007-03-04T10:30:00Z,28.9818,-94.9186,2.0,223.741801,49.92669927,-99999.0,'11111222,11111222,99999999' 
TABS,ioos:station:wmo:42043:1,2007-03-04T11:00:00Z,28.9818,-94.9186,2.0,225.2374923,49.40597636,-99999.0,'11111222,11111222,99999999' 
TABS,ioos:station:wmo:42043:1,2007-03-04T11:30:00Z,28.9818,-94.9186,2.0,226.865303,44.96046819,-99999.0,'11111222,11111222,99999999' 
TABS,ioos:station:wmo:42043:1,2007-03-04T12:00:00Z,28.9818,-94.9186,2.0,228.4084156,46.14257253,-99999.0,'11111222,11111222,99999999' 
TABS,ioos:station:wmo:42043:1,2007-03-04T12:30:00Z,28.9818,-94.9186,2.0,228.2519467,42.50193054,-99999.0,'11111222,11111222,99999999' 
TABS,ioos:station:wmo:42043:1,2007-03-04T13:00:00Z,28.9818,-94.9186,2.0,229.457915,41.75371241,-99999.0,'11111222,11111222,99999999' 
TABS,ioos:station:wmo:42043:1,2007-03-04T13:30:00Z,28.9818,-94.9186,2.0,230.4050934,43.46113321,-99999.0,'11111222,11111222,99999999' 
TABS,ioos:station:wmo:42043:1,2007-03-04T14:00:00Z,28.9818,-94.9186,2.0,234.1330464,44.54682929,-99999.0,'11111222,11111222,99999999' 
TABS,ioos:station:wmo:42043:1,2007-03-04T14:30:00Z,28.9818,-94.9186,2.0,230.8725798,40.97979624,-99999.0,'11111222,11111222,99999999' 
TABS,ioos:station:wmo:42043:1,2007-03-04T15:00:00Z,28.9818,-94.9186,2.0,233.7317155,32.74380705,-99999.0,'11111222,11111222,99999999' 
TABS,ioos:station:wmo:42043:1,2007-03-04T15:30:00Z,28.9818,-94.9186,2.0,226.2287985,31.9756548,-99999.0,'11111222,11111222,99999999' 
TABS,ioos:station:wmo:42043:1,2007-03-04T16:00:00Z,28.9818,-94.9186,2.0,230.452851,49.33183252,-99999.0,'11111222,11111222,99999999' 
TABS,ioos:station:wmo:42043:1,2007-03-04T17:00:00Z,28.9818,-94.9186,2.0,236.269231,43.31100207,-99999.0,'11111222,11111222,99999999' 
TABS,ioos:station:wmo:42043:1,2007-03-04T17:30:00Z,28.9818,-94.9186,2.0,236.2107038,43.38871397,-99999.0,'11111222,11111222,99999999' 
TABS,ioos:station:wmo:42043:1,2007-03-04T18:00:00Z,28.9818,-94.9186,2.0,243.1756746,37.60657522,-99999.0,'11111222,11111222,99999999' 
TABS,ioos:station:wmo:42043:1,2007-03-04T18:30:00Z,28.9818,-94.9186,2.0,241.9917369,33.92296272,-99999.0,'11111222,11111222,99999999' 
TABS,ioos:station:wmo:42043:1,2007-03-04T19:00:00Z,28.9818,-94.9186,2.0,250.3359594,35.24536423,-99999.0,'11111222,11111222,99999999' 
TABS,ioos:station:wmo:42043:1,2007-03-04T19:30:00Z,28.9818,-94.9186,2.0,242.8780096,37.75108078,-99999.0,'11111222,11111222,99999999' 
TABS,ioos:station:wmo:42043:1,2007-03-04T20:00:00Z,28.9818,-94.9186,2.0,248.445831,36.09393993,-99999.0,'11111222,11111222,99999999' 
TABS,ioos:station:wmo:42043:1,2007-03-04T21:00:00Z,28.9818,-94.9186,2.0,250.1797089,36.8955851,-99999.0,'11111222,11111222,99999999' 